To NAV CANADA Home Page Login to a new session Search on AWWS site Feedback and Comments Disclaimer Vers la page française équivalente Tips FAQ What's new on the site To the Forecasts and Observations / NOTAM section To "File a Flight Plan" website Publications and other links Update of the User's profile FIC Telephone Numbers My Weather Data Folder Route Weather Data Regional Weather Data Local Weather Data To the Forecasts and Observations / NOTAM section
Request Generated 03/28/2017 at 02:20:35 UTC . Weather information available at that time is displayed.

METAR/TAF

UMIUJAQ/QC    

LWIS CYMU 280200Z AUTO 08021KT M05/M12 A3003=
LWIS CYMU 280100Z AUTO 10024KT M03/M11 A3002=
LWIS CYMU 280000Z AUTO 10025KT M03/M10 A3001=

CYMU - No TAF is issued for this station

Your time UTC time
Weather data provided by Environment Canada and NAV CANADA